Location: Pilipovskiye Korichintsy
(49.1833°N, 27.4667°E)
Time: 22:37:46
(UTC+00:00)

Cosmos 2322 Rocket - Pass Details

Date: 14 July 2020
Orbit: 832 x 851 km, 71.0° (Epoch: 10 August)

Event Time Altitude Azimuth Distance (km) Brightness Sun altitude
Rises 01:00:48 0° 334° (NNW) 3,405 5.7 -10.3°
Reaches altitude 10° 01:03:23 10° 341° (NNW) 2,470 5.1 -10.0°
Maximum altitude 01:08:47 43° 52° (NE) 1,179 3.6 -9.4°
Drops below altitude 10° 01:14:09 10° 124° (ESE) 2,469 4.7 -8.9°
Sets 01:16:44 0° 131° (SE) 3,403 5.4 -8.6°
